Tillbaka till svenska Fidonet
English   Information   Debug  
FILM   0/18
FNEWS_PUBLISH   4983
FN_SYSOP   42232
FN_SYSOP_OLD1   71952
FTP_FIDO   0/2
FTSC_PUBLIC   0/13976
FUNNY   0/4886
GENEALOGY.EUR   0/71
GET_INFO   105
GOLDED   0/408
HAM   3689/16715
HOLYSMOKE   0/6791
HOT_SITES   0/1
HTMLEDIT   0/71
HUB203   466
HUB_100   264
HUB_400   39
HUMOR   0/29
IC   0/2851
INTERNET   0/424
INTERUSER   0/3
IP_CONNECT   719
JAMNNTPD   0/233
JAMTLAND   0/47
KATTY_KORNER   0/41
LAN   0/16
LINUX-USER   0/19
LINUXHELP   0/1155
LINUX   0/22386
LINUX_BBS   0/957
mail   18.68
mail_fore_ok   249
MENSA   0/341
MODERATOR   0/102
MONTE   0/992
MOSCOW_OKLAHOMA   0/1245
MUFFIN   0/783
MUSIC   0/321
N203_STAT   938
N203_SYSCHAT   313
NET203   321
NET204   69
NET_DEV   0/10
NORD.ADMIN   0/101
NORD.CHAT   1982/2572
NORD.FIDONET   189
NORD.HARDWARE   0/28
NORD.KULTUR   0/114
NORD.PROG   0/32
NORD.SOFTWARE   0/88
NORD.TEKNIK   0/58
NORD   0/453
OCCULT_CHAT   0/93
OS2BBS   0/787
OS2DOSBBS   0/580
OS2HW   0/42
OS2INET   0/37
OS2LAN   0/134
OS2PROG   0/36
OS2REXX   0/113
OS2USER-L   207
OS2   0/4831
OSDEBATE   0/18996
PASCAL   0/490
PERL   0/457
PHP   0/45
POINTS   0/405
POLITICS   27813/29554
POL_INC   240/14731
PSION   103
R20_ADMIN   1133
R20_AMATORRADIO   0/2
R20_BEST_OF_FIDONET   16
R20_CHAT   0/897
R20_DEPP   0/3
R20_DEV   400
R20_ECHO2   1889
R20_ECHOPRES   0/35
R20_ESTAT   0/719
R20_FIDONETPROG...
...RAM.MYPOINT
  0/2
R20_FIDONETPROGRAM   0/22
R20_FIDONET   0/248
R20_FILEFIND   0/24
R20_FILEFOUND   0/22
R20_HIFI   0/3
R20_INFO2   3782
R20_INTERNET   0/12940
R20_INTRESSE   0/60
R20_INTR_KOM   0/99
R20_KANDIDAT.CHAT   42
R20_KANDIDAT   28
R20_KOM_DEV   112
R20_KONTROLL   0/13360
R20_KORSET   0/18
R20_LOKALTRAFIK   0/24
R20_MODERATOR   0/1852
R20_NC   76
R20_NET200   245
R20_NETWORK.OTH...
...ERNETS
  0/13
R20_OPERATIVSYS...
...TEM.LINUX
  0/44
R20_PROGRAMVAROR   0/1
R20_REC2NEC   534
R20_SFOSM   0/341
R20_SF   0/108
R20_SPRAK.ENGLISH   0/1
R20_SQUISH   107
R20_TEST   2
R20_WORST_OF_FIDONET   20
RAR   0/9
RA_MULTI   106
RA_UTIL   0/162
REGCON.EUR   0/2069
REGCON   0/13
SCIENCE   0/1206
SF   0/239
SHAREWARE_SUPPORT   0/5146
SHAREWRE   0/14
SIMPSONS   0/169
STATS_OLD1   1191/2539.065
STATS_OLD2   0/2530
STATS_OLD3   0/2395.095
STATS_OLD4   0/1692.25
SURVIVOR   0/495
SYSOPS_CORNER   0/3
SYSOP   27/84
TAGLINES   0/112
TEAMOS2   0/4530
TECH   0/2617
TEST.444   0/105
TRAPDOOR   0/19
TREK   0/755
TUB   0/290
UFO   0/40
UNIX   0/1316
USA_EURLINK   0/102
USR_MODEMS   0/1
VATICAN   0/2740
VIETNAM_VETS   0/14
VIRUS   0/378
VIRUS_INFO   0/201
VISUAL_BASIC   0/473
WHITEHOUSE   0/5187
WIN2000   0/101
WIN32   0/30
WIN95   0/4291
WIN95_OLD1   3/70272
WINDOWS   0/1517
WWB_SYSOP   0/419
WWB_TECH   0/810
ZCC-PUBLIC   0/1
ZEC   4

 
4DOS   0/134
ABORTION   0/7
ALASKA_CHAT   0/506
ALLFIX_FILE   0/1313
ALLFIX_FILE_OLD1   0/7997
ALT_DOS   0/152
AMATEUR_RADIO   0/1039
AMIGASALE   0/14
AMIGA   0/331
AMIGA_INT   0/1
AMIGA_PROG   0/20
AMIGA_SYSOP   0/26
ANIME   0/15
ARGUS   0/924
ASCII_ART   0/340
ASIAN_LINK   0/651
ASTRONOMY   0/417
AUDIO   0/92
AUTOMOBILE_RACING   0/105
BABYLON5   0/17862
BAG   135
BATPOWER   0/361
BBBS.ENGLISH   0/382
BBSLAW   0/109
BBS_ADS   0/5290
BBS_INTERNET   0/507
BIBLE   0/3563
BINKD   0/1119
BINKLEY   0/215
BLUEWAVE   0/2173
CABLE_MODEMS   0/25
CBM   0/46
CDRECORD   0/66
CDROM   0/20
CLASSIC_COMPUTER   0/378
COMICS   0/15
CONSPRCY   0/899
COOKING   42010
COOKING_OLD1   0/24719
COOKING_OLD2   31285/40862
COOKING_OLD3   0/37489
COOKING_OLD4   0/35496
COOKING_OLD5   9370
C_ECHO   0/189
C_PLUSPLUS   0/31
DIRTY_DOZEN   153/201
DOORGAMES   0/2333
DOS_INTERNET   0/196
duplikat   6102
ECHOLIST   11143/18295
EC_SUPPORT   17/318
ELECTRONICS   0/359
ELEKTRONIK.GER   1534
ENET.LINGUISTIC   0/13
ENET.POLITICS   0/4
ENET.SOFT   0/11701
ENET.SYSOP   34335
ENET.TALKS   0/32
ENGLISH_TUTOR   0/2000
EVOLUTION   0/1335
FDECHO   0/217
FDN_ANNOUNCE   6368/7068
FIDONEWS   25122
FIDONEWS_OLD1   0/49742
FIDONEWS_OLD2   12/35949
FIDONEWS_OLD3   0/30874
FIDONEWS_OLD4   0/37224
FIDO_SYSOP   12973
FIDO_UTIL   0/180
FILEFIND   0/209
FILEGATE   0/212
Möte HAM, 16715 texter
 lista första sista föregående nästa
Text 865, 763 rader
Skriven 2006-03-10 01:31:20 av Amsat List (1:323/120.0)
Ärende: 
========
SB KEPS @ AMSAT  $ORB06068.O
Orbital Elements  06068.OSCAR

HR AMSAT ORBITAL ELEMENTS FOR OSCAR SATELLITES
FROM WA5QGD FORT WORTH,TX March 9, 2006
Send SUBSCRIBE KEPS/UNSUBSCRIBE KEPS to majordomo@amsat.org only
BID: ORB06068.O
TO ALL RADIO AMATEURS BT

Satellite: AO-07
Catalog number: 07530
Epoch time:      06067.71029405
Element set:    0569
Inclination:      101.5880 deg
RA of node:       113.1021 deg
Eccentricity:    0.0012192
Arg of perigee:   081.9134 deg
Mean anomaly:     278.3322 deg
Mean motion:   12.53572115 rev/day
Decay rate:       -2.8e-07 rev/day^2
Epoch rev:           43279
Checksum:              268

Satellite: AO-10
Catalog number: 14129
Epoch time:      06064.83720117
Element set:    0266
Inclination:      027.4567 deg
RA of node:       346.1282 deg
Eccentricity:    0.6030709
Arg of perigee:   266.6392 deg
Mean anomaly:     027.2172 deg
Mean motion:   02.05871005 rev/day
Decay rate:      -4.84e-06 rev/day^2
Epoch rev:           17092
Checksum:              288

Satellite: UO-11
Catalog number: 14781
Epoch time:      06068.42208401
Element set:      12
Inclination:      098.2107 deg
RA of node:       076.5098 deg
Eccentricity:    0.0008275
Arg of perigee:   222.9215 deg
Mean anomaly:     137.1363 deg
Mean motion:   14.79389424 rev/day
Decay rate:       1.21e-06 rev/day^2
Epoch rev:           18101
Checksum:              274

Satellite: RS-10/11
Catalog number: 18129
Epoch time:      06068.40372345
Element set:     932
Inclination:      082.9233 deg
RA of node:       041.9604 deg
Eccentricity:    0.0012632
Arg of perigee:   017.6917 deg
Mean anomaly:     342.4675 deg
Mean motion:   13.72771488 rev/day
Decay rate:        2.1e-07 rev/day^2
Epoch rev:           93746
Checksum:              304

Satellite: RS-15
Catalog number: 23439
Epoch time:      06067.97175839
Element set:    0955
Inclination:      064.8182 deg
RA of node:       039.3057 deg
Eccentricity:    0.0168127
Arg of perigee:   271.1617 deg
Mean anomaly:     087.0046 deg
Mean motion:   11.27552280 rev/day
Decay rate:       -3.9e-07 rev/day^2
Epoch rev:           46124
Checksum:              319

Satellite: FO-29
Catalog number: 24278
Epoch time:      06067.59334195
Element set:    0180
Inclination:      098.5157 deg
RA of node:       086.0222 deg
Eccentricity:    0.0349985
Arg of perigee:   210.6105 deg
Mean anomaly:     147.4213 deg
Mean motion:   13.52919226 rev/day
Decay rate:       -2.0e-07 rev/day^2
Epoch rev:           47194
Checksum:              310

Satellite: SO-33
Catalog number: 25509
Epoch time:      06067.43183554
Element set:    0599
Inclination:      031.4352 deg
RA of node:       338.8768 deg
Eccentricity:    0.0355835
Arg of perigee:   315.7017 deg
Mean anomaly:     041.5639 deg
Mean motion:   14.28078441 rev/day
Decay rate:        8.6e-07 rev/day^2
Epoch rev:           38462
Checksum:              331

Satellite: AO-40
Catalog number: 26609
Epoch time:      06066.62840592
Element set:     685
Inclination:      007.2363 deg
RA of node:       252.2927 deg
Eccentricity:    0.7923785
Arg of perigee:   138.3695 deg
Mean anomaly:     321.0423 deg
Mean motion:   01.25583788 rev/day
Decay rate:      -3.07e-06 rev/day^2
Epoch rev:            2457
Checksum:              327

Satellite: VO-52
Catalog number: 28650
Epoch time:      06068.80997353
Element set:     272
Inclination:      097.8783 deg
RA of node:       143.5819 deg
Eccentricity:    0.0026897
Arg of perigee:   327.1097 deg
Mean anomaly:     032.8422 deg
Mean motion:   14.81060162 rev/day
Decay rate:      -1.06e-06 rev/day^2
Epoch rev:            4567
Checksum:              327

/EX
SB KEPS @ AMSAT  $ORB06068.D
Orbital Elements  06068.MICROS

HR AMSAT ORBITAL ELEMENTS FOR THE MICROSATS
FROM WA5QGD FORT WORTH,TX March 9, 2006
Send SUBSCRIBE KEPS/UNSUBSCRIBE KEPS to majordomo@amsat.org only
BID: ORB06068.D
TO ALL RADIO AMATEURS BT

Satellite: AO-16
Catalog number: 20439
Epoch time:      06068.56119646
Element set:     692
Inclination:      098.1912 deg
RA of node:       084.0848 deg
Eccentricity:    0.0011632
Arg of perigee:   127.7445 deg
Mean anomaly:     232.4805 deg
Mean motion:   14.31712472 rev/day
Decay rate:       -1.0e-07 rev/day^2
Epoch rev:           84206
Checksum:              294

Satellite: WO-18
Catalog number: 20441
Epoch time:      06068.06333059
Element set:     892
Inclination:      098.1973 deg
RA of node:       088.2090 deg
Eccentricity:    0.0011727
Arg of perigee:   128.4809 deg
Mean anomaly:     231.7422 deg
Mean motion:   14.31783607 rev/day
Decay rate:        6.0e-08 rev/day^2
Epoch rev:           84205
Checksum:              300

Satellite: LO-19
Catalog number: 20442
Epoch time:      06067.63002213
Element set:    0631
Inclination:      098.2011 deg
RA of node:       092.5889 deg
Eccentricity:    0.0012349
Arg of perigee:   129.5260 deg
Mean anomaly:     230.7013 deg
Mean motion:   14.31956210 rev/day
Decay rate:       -2.4e-07 rev/day^2
Epoch rev:           84206
Checksum:              260

Satellite: UO-22
Catalog number: 21575
Epoch time:      06068.86364880
Element set:     644
Inclination:      098.2835 deg
RA of node:       029.7516 deg
Eccentricity:    0.0007942
Arg of perigee:   016.2602 deg
Mean anomaly:     343.8834 deg
Mean motion:   14.39536785 rev/day
Decay rate:        8.0e-08 rev/day^2
Epoch rev:           76872
Checksum:              339

Satellite: KO-23
Catalog number: 22077
Epoch time:      06068.16443595
Element set:     731
Inclination:      066.0883 deg
RA of node:       311.5265 deg
Eccentricity:    0.0004922
Arg of perigee:   188.6131 deg
Mean anomaly:     171.4805 deg
Mean motion:   12.86435548 rev/day
Decay rate:       -3.7e-07 rev/day^2
Epoch rev:           63767
Checksum:              313

